Location: Newport
(44.6370°N, 124.0520°W)
Time: 06:40:32
(UTC-07:00)

ISS - Pass Details

Date: 15 October 2017
Orbit: 400 x 408 km, 51.6° (Epoch: 24 October)

Event Time Altitude Azimuth Distance (km) Brightness Sun altitude
Rises 20:15:12 0° 284° (WNW) 2,325 1.6 -19.3°
Reaches altitude 10° 20:18:30 10° 248° (WSW) 1,461 -0.1 -19.9°
Maximum altitude 20:19:33 11° 229° (SW) 1,389 -0.6 -20.1°
Drops below altitude 10° 20:20:36 10° 210° (SSW) 1,459 -0.8 -20.2°
Enters shadow 20:22:15 - 188° (S) 1,800 -0.5 -20.5°
